Regional Weather Roundup
Issued by NWS Sterling, VA

Home | Current Version | Previous Version | Graphics & Text | Print | Product List | Glossary On
Versions: 1 2 3 4 5 6 7 8 9 10 11 12 13 14 15 16 17 18 19 20 21 22 23 24 25 26 27 28 29 30 31 32 33 34 35 36 37 38 39 40 41 42 43 44 45 46 47 48 49 50
000
ASUS41 KLWX 232211
RWRLWX

REGIONAL WEATHER ROUNDUP
NATIONAL WEATHER SERVICE BALTIMORE MD/WASHINGTON DC
600 PM EDT MON APR 23 2018

Note: "FAIR" indicates few or no clouds below 12,000 feet
with no significant weather and/or obstructions to visibility.
 TC=TEMPERATURE CELSIUS

 * =Non NWS site. Station does not report precipitation (e.g. rain,
    snow, etc.), thunder, or fog.

DCZ001-MDZ009-015-VAZ040>042-051-053>054-232300-
WASHINGTON METRO

CITY           SKY/WX    TMP DP  RH WIND       PRES   REMARKS
WASHINGTON NAT PTSUNNY   65  42  43 SE16G22   30.36R
DULLES         CLOUDY    66  43  43 S10G23    30.34R
QUANTICO       PTSUNNY   62  44  51 SE20      30.37R
COLLEGE PARK*  FAIR      65  38  37 SE8       30.36R
LEESBURG*      CLOUDY    68  45  42 SE14      30.34S
MANASSAS*      PTSUNNY   64  43  46 SE18      30.35R
GAITHERSBURG*  CLOUDY    65  41  41 SE15      30.35R

$$

MDZ006>007-011-014-232300-
BALTIMORE METRO

CITY           SKY/WX    TMP DP  RH WIND       PRES   REMARKS
BWI AIRPORT    PTSUNNY   65  42  43 S10G21    30.36R
MD SCIENCE CTR   N/A     68  44  42 MISG      30.36S
MARTIN STATE   PTSUNNY   66  50  55 SE10      30.37F
ANNAPOLIS      FAIR      64  42  44 S15G22    30.37R
FORT MEADE*    FAIR      64  39  39 SE10G16   30.39R

$$

MDZ012-015-019>023-232300-
MARYLAND EASTERN SHORE

CITY           SKY/WX    TMP DP  RH WIND       PRES   REMARKS
OCEAN CITY     FAIR      53  43  68 SE6       30.42F
SALISBURY      FAIR      60  23  24 SE13      30.41R
BAY BRIDGE AP* FAIR      63  43  48 SW13G20   30.37R
CAMBRIDGE*     SUNNY     63  30  29 SE13G20   30.39R
EASTON*        PTSUNNY   66  30  26 SE15G22   30.41R

$$

MDZ017>025-232300-
SOUTHERN MARYLAND

CITY           SKY/WX    TMP DP  RH WIND       PRES   REMARKS
PATUXENT RIVER PTSUNNY   61  38  42 SE12      30.39R
ST INIGOES     FAIR      60  34  37 SE10      30.39R
LEONARDTOWN*   FAIR      61  28  29 SE12      30.41R

$$

MDZ003>005-232300-
NORTH CENTRAL MARYLAND

CITY           SKY/WX    TMP DP  RH WIND       PRES   REMARKS
FREDERICK*     CLOUDY    66  37  34 SE9G18    30.36R
HAGERSTOWN APT CLOUDY    66  42  41 S16       30.32R
WESTMINSTER*   PTSUNNY  N/A N/A N/A SE10G16   30.35R

$$

MDZ501>502-232300-
WESTERN MARYLAND

CITY           SKY/WX    TMP DP  RH WIND       PRES   REMARKS
OAKLAND*       FAIR      54  36  50 SE17G26   30.27S
CUMBERLAND*    PTSUNNY   66  39  37 SE10G18   30.32R

$$

VAZ025>031-232300-
SHENANDOAH VALLEY

CITY           SKY/WX    TMP DP  RH WIND       PRES   REMARKS
WINCHESTER*    PTSUNNY   63  43  48 SE14G20   30.33R
FRONT ROYAL*   FAIR      63  45  51 SE10G21   30.30S
LURAY*         CLOUDY    64  43  45 SE9G16    30.30F
NEW MARKET*    CLOUDY    63  44  50 S6        30.28S
STAUNTON*      CLOUDY    62  44  52 SE5       30.31F
WAYNESBORO*    PTSUNNY   62  44  52 SE7       30.28F

$$

WVZ021-048>050-054>055-232300-
EASTERN WEST VIRGINIA PANHANDLE

CITY           SKY/WX    TMP DP  RH WIND       PRES   REMARKS
MARTINSBURG    FAIR      65  42  43 SE10G20   30.30S
PETERSBURG*    PTSUNNY   63  42  46 SE12      30.27S

$$

VAZ036>039-050-232300-
CENTRAL FOOTHILLS

CITY           SKY/WX    TMP DP  RH WIND       PRES   REMARKS
CHARLOTTESVILL CLOUDY    68  43  40 SE14G20   30.29S
CULPEPER*      FAIR      66  42  41 E3        30.33S
ORANGE*        CLOUDY    64  41  42 SE8G16    30.31F
GORDONSVILLE*  PTSUNNY   66  45  46 SE7       30.30S
WARRENTON*     FAIR      65  39  37 E10G17    30.33S

$$

VAZ055>057-232300-
NORTH AND CENTRAL PIEDMONT

CITY           SKY/WX    TMP DP  RH WIND       PRES   REMARKS
FREDERICKSBRG* FAIR      65  44  46 E12G17    30.34R
STAFFORD*      FAIR      65  44  47 SE9G20    30.38S

$$

NCZ024-NYZ072-PAZ021-071-VAZ022-071-232300-
OTHER REGIONAL OBSERVATIONS

CITY           SKY/WX    TMP DP  RH WIND       PRES   REMARKS
NEW YORK CITY  FAIR      56  34  43 MISG      30.45F
PHILADELPHIA   PTSUNNY   65  24  21 S14G22    30.39S
PITTSBURGH     CLOUDY    68  35  29 SE16      30.19S
ROANOKE        LGT RAIN  58  49  72 E7        30.27S
RICHMOND       CLOUDY    63  37  38 E15G24    30.34R
RALEIGH        PTSUNNY   64  52  64 E17G33    30.20F

$$

ANZ530>537-232300-
MARINE OBSERVATIONS

STATION/POSITION TIME  TEMP    WIND        PRES
                       AIR SEA DIR/SP/G
                 (UTC) (F)     (DEG/KT/KT) (MB)
THOMAS PT LIGHT  NOT AVBL
BALT KEY BRIDGE  2148   62     160/ 11/ 12 1028.0R
COVE POINT       2148   57     190/ 15/ 17 1029.9R
LEWISETTA        2148   61 57  160/ 15/ 21 1029.1R
SOLOMONS ISLAND  2148   59 54  140/ 18/ 20 1028.9R
PINEY POINT      2142          150/ 12/ 12   N/A

$$




USA.gov is the U.S. government's official web portal to all federal, state and local government web resources and services.